Location: Brienzwiler
(46.7508°N, 8.1014°E)
Time: 01:20:56
(UTC+00:00)

Terra - Pass Details

Date: 05 July 2020
Orbit: 701 x 703 km, 98.2° (Epoch: 11 August)

Event Time Altitude Azimuth Distance (km) Brightness Sun altitude
Exits shadow 20:31:41 12° 128° (SE) 2,039 3.6 -9.5°
Maximum altitude 20:35:34 34° 67° (ENE) 1,158 2.8 -9.9°
Drops below altitude 10° 20:39:51 10° 3° (N) 2,182 5.1 -10.4°
Sets 20:42:16 0° 354° (N) 3,105 6.2 -10.7°
